Find Starlink 32448

NORAD ID: 62206 Int'l Des: 2024-229 Owner: SPXS Country: US Constellation: starlink operational
LEOCIRCULAR

当前视图

正在加载3D地球...

About Starlink 32448

Starlink 32448 (NORAD 62206) is a starlink constellation satellite (v2 mini) launched Dec 4, 2024 by SPXS of US. It operates in LEO, CIRCULAR orbit with a mass of 730.00 kg.

即将过境

Passes for default location (London). Set your location on the main map for personalized predictions.

高度历史

Loading altitude history...

两行轨道根数

1 62206U 24229Q 26263.00814494 .00010346 00000-0 38489-3 0 9993
2 62206 42.9988 252.9793 0000895 263.1008 96.9742 15.27586158100283
Epoch: Sep 20, 2026 • Age: 26 hours

当前状态

高度 490.0 km
远地点 / 近地点 N/A
速度 7.62 km/s
星下点 -28.65°S, 68.28°E
发射日期 Dec 4, 2024
运行时间 1.7 years
类型 internet

技术详情

分类 Payload
质量 730.00 kg
干质量 700.00 kg
长度 0.30 m
跨度 29.00 m
形状 ? Box + pan
制造商 SPXS
平台类型 Starlink V2M
阶段状态 In Orbit
所有者/国家 SPXS/US

Most Searched